Total_Precipitation_Accumulation
1.57 2.02 2.53 3.04 3.71 4.62 5.55 5.89 5.64 5.06 4.63 4.23 3.75 3.36 3.02 2.76 2.64 2.35 2.03 1.92 1.83 1.78 1.96 1.70 1.84 1.85 1.91 1.93 1.96 2.06 1.98 1.74 1.89 2.20 2.03 1.65 1.48 1.45 1.39 1.37 1.46 1.34 1.43
1.63 2.12 2.70 3.12 3.47 4.00 4.74 5.03 4.68 4.06 3.49 3.22 3.05 2.85 2.75 2.43 2.24 2.15 2.05 1.76 1.73 1.72 1.73 1.81 1.56 1.59 1.72 1.67 1.71 2.00 1.93 1.67 1.77 2.13 2.25 2.00 1.93 1.64 1.15 1.24 1.38 1.37 1.50
1.47 2.19 2.71 3.00 3.25 3.46 3.45 3.56 3.46 2.97 2.62 2.53 2.50 2.46 2.54 2.35 2.11 1.99 1.83 1.59 1.50 1.42 1.47 1.49 1.50 1.60 1.53 1.61 1.71 1.80 1.89 1.78 1.65 1.74 2.21 2.15 1.95 1.67 1.41 1.29 1.29 1.40 1.63
1.32 2.07 2.35 2.45 2.49 2.58 2.39 2.39 2.47 2.30 2.24 2.15 2.17 2.05 1.91 1.85 1.75 1.74 1.68 1.56 1.44 1.36 1.27 1.31 1.34 1.46 1.47 1.68 1.50 1.58 1.76 1.80 1.61 1.64 1.78 1.83 1.85 1.84 1.62 1.38 1.26 1.33 1.44
1.02 1.36 1.42 1.54 1.61 1.69 1.73 1.89 2.13 2.15 2.05 2.01 2.12 2.13 1.86 1.69 1.59 1.61 1.68 1.57 1.45 1.34 1.22 1.26 1.36 1.43 1.47 1.51 1.53 1.74 1.71 1.65 1.63 1.64 1.71 1.77 1.77 1.67 1.68 1.61 1.37 1.28 1.18
0.70 0.90 0.95 0.99 1.05 1.10 1.24 1.44 1.82 1.99 1.90 1.85 1.90 1.89 1.82 1.74 1.61 1.49 1.50 1.49 1.42 1.38 1.37 1.31 1.41 1.41 1.43 1.43 1.45 1.59 1.61 1.64 1.70 1.62 1.57 1.71 1.79 1.72 1.76 1.68 1.46 1.33 1.14
0.62 0.73 0.86 0.88 0.81 0.79 0.91 1.11 1.36 1.49 1.52 1.59 1.70 1.78 1.85 1.79 1.62 1.52 1.42 1.41 1.30 1.28 1.41 1.39 1.42 1.47 1.49 1.41 1.45 1.49 1.46 1.54 1.68 1.63 1.52 1.51 1.50 1.59 1.68 1.69 1.50 1.39 1.22
0.47 0.50 0.57 0.57 0.56 0.65 0.74 0.90 1.04 1.13 1.22 1.32 1.48 1.63 1.67 1.67 1.62 1.67 1.52 1.40 1.28 1.25 1.34 1.43 1.41 1.36 1.32 1.31 1.57 1.45 1.38 1.48 1.55 1.50 1.73 1.67 1.48 1.61 1.71 1.74 1.79 1.63 1.54
0.33 0.32 0.32 0.32 0.39 0.56 0.67 0.74 0.84 0.95 1.06 1.16 1.37 1.52 1.55 1.52 1.54 1.60 1.51 1.34 1.34 1.27 1.32 1.28 1.35 1.35 1.28 1.33 1.49 1.48 1.45 1.50 1.48 1.58 1.77 1.74 1.66 1.67 1.72 1.86 2.04 2.17 1.98
0.27 0.28 0.26 0.24 0.25 0.32 0.47 0.61 0.71 0.87 1.04 1.12 1.15 1.21 1.38 1.37 1.33 1.28 1.25 1.31 1.32 1.29 1.34 1.35 1.25 1.25 1.28 1.36 1.50 1.49 1.46 1.56 1.64 1.78 1.89 1.87 1.84 1.83 1.75 1.82 1.96 2.14 2.19
0.31 0.26 0.26 0.24 0.22 0.25 0.37 0.52 0.62 0.74 0.86 0.89 0.91 1.04 1.15 1.14 1.11 1.10 1.07 1.15 1.16 1.19 1.22 1.23 1.24 1.24 1.31 1.51 1.77 1.72 1.67 1.69 1.75 1.84 2.01 2.07 2.18 2.16 2.00 1.96 1.95 2.01 2.14
0.43 0.34 0.31 0.25 0.29 0.31 0.34 0.45 0.48 0.53 0.60 0.66 0.74 0.86 0.97 0.97 0.97 1.01 1.13 1.20 1.16 1.09 1.00 1.03 1.11 1.11 1.22 1.47 1.79 1.92 1.91 1.93 1.88 1.96 2.19 2.22 2.21 2.13 2.03 2.05 1.99 1.98 2.14
0.45 0.52 0.47 0.34 0.34 0.31 0.33 0.38 0.38 0.46 0.53 0.58 0.64 0.71 0.83 0.95 1.00 1.05 1.12 1.20 1.20 1.14 1.12 1.13 1.15 1.27 1.34 1.39 1.57 1.74 1.82 1.86 1.85 1.98 2.06 2.06 2.13 2.05 2.01 1.93 1.89 1.87 2.02
0.47 0.59 0.64 0.42 0.34 0.33 0.36 0.36 0.38 0.41 0.43 0.49 0.59 0.68 0.79 0.96 1.06 1.11 1.17 1.24 1.27 1.25 1.28 1.28 1.30 1.39 1.42 1.38 1.48 1.63 1.74 1.80 1.84 1.91 2.00 2.05 2.05 2.09 2.19 2.08 2.05 2.12 2.20
0.50 0.47 0.50 0.43 0.41 0.41 0.39 0.39 0.44 0.48 0.48 0.57 0.66 0.74 0.85 0.91 1.00 1.15 1.25 1.34 1.38 1.31 1.38 1.44 1.43 1.42 1.36 1.31 1.52 1.66 1.67 1.81 1.87 1.87 1.84 1.92 2.11 2.19 2.22 2.05 2.09 2.22 2.20
0.55 0.62 0.62 0.58 0.56 0.54 0.50 0.50 0.55 0.60 0.69 0.79 0.84 0.88 0.95 1.03 1.08 1.15 1.19 1.31 1.37 1.42 1.50 1.56 1.58 1.50 1.32 1.50 1.62 1.64 1.67 1.77 1.81 1.81 1.74 1.67 1.70 1.78 1.89 1.89 1.85 1.88 1.94
0.67 0.76 0.82 0.78 0.74 0.68 0.63 0.64 0.68 0.77 0.86 0.95 1.08 1.13 1.15 1.24 1.26 1.28 1.27 1.31 1.45 1.55 1.58 1.56 1.56 1.53 1.59 1.64 1.49 1.43 1.36 1.42 1.50 1.50 1.47 1.29 1.20 1.44 1.53 1.67 1.66 1.55 1.53
0.66 0.78 0.88 0.87 0.79 0.77 0.80 0.90 0.94 1.00 1.12 1.20 1.33 1.46 1.50 1.57 1.63 1.69 1.67 1.68 1.73 1.81 1.76 1.65 1.65 1.73 1.75 1.75 1.50 1.38 1.24 1.25 1.27 1.26 1.23 1.23 1.21 1.27 1.38 1.45 1.45 1.40 1.36
0.72 0.89 0.90 0.87 0.86 0.97 1.02 1.05 1.10 1.18 1.36 1.53 1.64 1.73 1.81 1.85 1.86 1.87 1.95 2.01 2.11 2.14 2.06 1.99 2.02 2.03 2.10 2.05 1.75 1.60 1.38 1.34 1.29 1.30 1.35 1.37 1.26 1.31 1.28 1.28 1.29 1.30 1.35
0.82 0.93 0.99 0.98 1.06 1.29 1.34 1.38 1.42 1.49 1.56 1.63 1.75 1.92 2.04 2.10 2.08 2.10 2.22 2.38 2.50 2.47 2.43 2.45 2.47 2.39 2.34 2.27 1.89 1.72 1.50 1.49 1.47 1.51 1.44 1.37 1.22 1.17 1.12 1.12 1.20 1.17 1.19
0.79 0.90 0.95 1.02 1.09 1.27 1.42 1.65 1.80 1.84 1.84 1.89 1.92 1.98 2.09 2.21 2.25 2.32 2.39 2.54 2.64 2.62 2.58 2.51 2.45 2.36 2.33 2.25 1.93 1.74 1.57 1.59 1.63 1.57 1.50 1.42 1.29 1.11 1.06 1.00 1.02 1.04 1.09
0.72 0.82 0.99 1.09 1.20 1.37 1.60 1.79 1.94 2.07 2.14 2.13 2.23 2.24 2.26 2.19 2.16 2.35 2.48 2.60 2.72 2.69 2.63 2.64 2.52 2.41 2.34 2.13 1.89 1.70 1.60 1.67 1.73 1.70 1.64 1.57 1.42 1.17 1.07 0.95 0.94 0.94 0.91
0.81 0.83 0.95 1.10 1.19 1.29 1.52 1.88 1.96 1.97 2.00 2.08 2.13 2.21 2.24 2.25 2.27 2.40 2.56 2.69 2.73 2.64 2.51 2.49 2.46 2.35 2.24 2.15 1.92 1.68 1.58 1.59 1.59 1.70 1.78 1.61 1.44 1.26 1.11 1.08 1.02 0.93 0.86
0.86 0.90 0.96 1.07 1.16 1.12 1.24 1.44 1.63 1.73 1.74 1.75 1.78 1.80 1.92 2.04 2.20 2.38 2.43 2.51 2.58 2.58 2.56 2.50 2.42 2.38 2.33 2.30 2.09 1.82 1.61 1.57 1.60 1.66 1.69 1.55 1.41 1.24 1.11 1.11 1.02 0.90 0.87
0.77 0.84 0.97 0.96 1.00 1.07 1.08 1.12 1.19 1.37 1.52 1.56 1.57 1.64 1.75 1.85 2.00 2.22 2.36 2.31 2.32 2.47 2.38 2.24 2.13 2.07 2.03 2.09 1.95 1.69 1.58 1.55 1.63 1.69 1.75 1.67 1.56 1.45 1.31 1.22 1.19 1.15 1.10
0.76 0.81 0.88 0.88 0.86 0.94 0.97 1.00 1.13 1.32 1.43 1.41 1.41 1.44 1.47 1.57 1.69 1.85 1.98 1.95 1.71 1.74 1.67 1.52 1.39 1.34 1.37 1.43 1.35 1.24 1.18 1.21 1.35 1.46 1.64 1.66 1.55 1.47 1.43 1.38 1.31 1.27 1.20